Wetbulb
66.81 65.08 64.05 63.12 61.28 57.62 55.99 54.41 55.06 55.46 55.06 54.18 53.91 54.05 54.33 54.38 54.60 54.94 54.03 52.86 52.02 51.10
62.92 61.09 60.27 57.69 56.19 54.78 53.49 52.10 52.77 52.96 52.42 52.71 52.42 52.54 52.71 51.89 51.20 51.94 51.15 49.93 49.05 48.01
59.38 59.05 57.68 55.78 53.33 51.89 51.04 50.50 51.58 51.61 50.77 51.31 51.26 51.06 50.70 49.93 49.68 48.87 48.43 47.91 47.48 47.07
57.12 55.89 54.39 53.11 51.97 51.00 49.92 49.89 50.35 50.23 49.81 50.03 49.80 49.85 49.58 48.81 47.88 46.97 46.78 47.37 46.70 46.16
55.24 53.64 52.24 50.56 50.36 50.46 49.28 49.57 49.88 49.59 48.93 48.38 48.71 48.62 47.73 46.85 46.59 46.03 45.79 45.81 45.71 44.87
52.82 51.36 50.51 49.55 49.92 49.81 49.05 49.49 49.65 49.02 47.80 48.10 48.06 47.20 47.52 46.68 45.97 45.93 45.80 45.77 45.16 44.44
50.55 50.64 50.74 50.36 48.73 49.69 49.58 48.58 48.33 48.36 47.62 47.39 46.81 46.96 46.50 45.65 45.47 45.43 45.24 45.84 45.34 44.67
50.65 50.45 49.53 49.96 47.56 48.75 48.20 48.60 48.28 47.64 47.07 46.74 46.33 46.18 46.03 45.55 45.02 44.37 43.98 44.65 44.24 44.47
49.56 49.52 48.89 47.38 48.21 48.36 47.81 48.38 48.33 47.37 46.44 46.14 46.09 39.18 39.40 43.28 44.86 43.87 43.18 42.90 43.35 41.67
48.60 47.65 47.01 46.74 46.30 46.86 48.20 48.26 48.31 48.94 48.35 47.55 47.07 38.26 38.64 38.60 44.91 43.85 43.54 43.25 42.92 40.66
47.91 46.42 45.96 45.40 45.93 46.00 47.25 48.18 49.37 49.04 48.44 47.93 45.95 37.69 37.53 36.90 45.00 43.79 43.35 43.51 43.65 42.13
48.27 45.79 45.30 44.82 44.59 45.89 46.43 47.98 47.74 47.86 47.28 47.27 45.69 37.12 36.73 38.75 44.18 43.31 41.98 42.33 42.59 42.30
49.65 47.71 44.31 44.37 45.16 46.30 47.08 46.15 46.93 47.99 48.99 45.06 47.33 36.67 36.61 39.22 43.94 41.36 39.69 40.33 41.66 35.80
51.00 49.22 45.91 44.54 44.63 44.65 45.50 43.77 44.27 45.30 46.28 47.41 47.08 41.82 36.59 37.32 43.19 41.63 41.24 39.86 40.07 39.26
MSLP
1013.82 1014.58 1015.20 1015.90 1016.48 1017.77 1018.41 1019.08 1019.27 1019.56 1019.86 1020.32 1020.61 1020.92 1021.34 1021.49 1021.69 1022.00 1022.41 1022.93 1022.99 1023.13
1013.92 1014.79 1015.60 1016.49 1017.18 1018.09 1018.51 1018.84 1019.36 1020.06 1020.27 1020.38 1020.65 1020.98 1021.38 1021.74 1022.18 1022.41 1022.76 1023.31 1023.60 1023.61
1013.88 1014.81 1015.73 1016.56 1017.19 1018.11 1018.61 1018.82 1019.27 1020.01 1020.38 1020.52 1020.75 1021.16 1021.43 1022.03 1022.51 1022.64 1022.94 1023.14 1023.60 1023.84
1014.00 1014.89 1015.81 1016.73 1017.45 1018.00 1018.44 1018.82 1019.35 1019.64 1020.37 1020.49 1020.76 1021.25 1021.69 1022.08 1022.55 1022.84 1023.27 1023.54 1023.80 1024.13
1013.82 1014.63 1015.63 1016.54 1017.11 1017.93 1018.47 1019.03 1019.33 1019.52 1020.31 1020.44 1020.94 1021.45 1022.02 1022.22 1022.60 1022.83 1023.45 1023.67 1024.23 1024.46
1013.58 1014.23 1015.09 1015.91 1016.95 1017.37 1018.31 1019.00 1019.26 1019.62 1019.87 1020.26 1020.93 1021.70 1022.19 1022.34 1022.81 1023.00 1023.49 1023.92 1024.29 1024.83
1013.58 1014.11 1014.90 1015.78 1015.96 1017.44 1018.18 1018.53 1019.13 1019.40 1019.69 1020.18 1020.98 1021.58 1022.16 1022.65 1023.03 1023.44 1023.79 1024.27 1024.59 1025.12
1013.52 1014.14 1014.77 1015.59 1016.26 1015.72 1018.25 1018.50 1018.79 1019.07 1019.68 1020.09 1020.70 1021.27 1021.79 1022.40 1023.01 1023.51 1024.13 1024.68 1024.83 1025.40
1013.69 1014.17 1014.77 1015.40 1016.15 1016.82 1017.39 1017.29 1018.20 1018.76 1019.40 1020.01 1020.51 1021.20 1021.80 1022.20 1022.69 1023.46 1023.95 1024.54 1024.91 1026.03
1013.62 1014.13 1014.77 1015.29 1015.86 1016.31 1016.95 1017.46 1018.51 1018.86 1019.57 1020.15 1020.95 1021.90 1022.41 1022.32 1022.50 1023.07 1023.52 1024.31 1024.94 1025.59
1013.78 1014.31 1014.87 1015.53 1015.92 1016.36 1016.80 1017.10 1017.52 1018.24 1019.28 1019.85 1020.75 1022.17 1022.80 1023.33 1023.41 1023.31 1023.75 1024.29 1024.71 1025.20
1013.61 1014.33 1014.85 1015.30 1015.81 1016.41 1016.71 1016.91 1017.44 1018.06 1018.98 1019.23 1020.56 1021.94 1022.68 1023.03 1023.28 1023.26 1023.79 1024.27 1024.87 1025.17
1013.22 1014.11 1014.63 1015.04 1015.51 1015.87 1016.07 1016.48 1017.19 1017.89 1018.34 1018.73 1019.88 1021.66 1022.15 1022.64 1022.68 1023.13 1023.67 1024.00 1024.48 1025.92
1012.57 1013.41 1014.62 1015.02 1015.52 1016.00 1016.34 1016.76 1016.82 1017.19 1017.98 1018.59 1019.54 1021.07 1021.63 1022.04 1022.20 1022.58 1023.04 1023.54 1024.33 1025.29
Wind_Speed
15 8 9 10 9 7 8 8 9 7 7 8 8 7 6 5 5 6 6 6 4 3
10 12 9 9 9 7 7 8 8 9 8 9 9 9 8 6 7 8 7 7 6 5
12 11 10 9 11 10 8 9 11 10 9 10 9 9 9 8 9 9 8 7 9 7
11 10 10 8 10 9 10 8 12 11 10 11 10 10 9 9 11 11 9 10 9 9
11 12 11 10 11 11 10 9 12 12 12 11 11 10 10 11 11 12 11 10 10 10
12 13 13 13 13 13 12 10 11 13 12 12 12 11 11 10 11 11 11 10 10 9
10 11 13 12 15 12 12 12 12 12 12 12 13 12 11 11 10 10 10 9 9 8
9 10 11 15 13 19 11 10 13 13 12 14 13 11 14 14 12 11 11 9 9 8
8 9 10 11 12 14 12 16 14 14 15 14 11 15 12 14 13 13 12 11 10 10
8 8 9 10 12 13 14 14 15 14 14 14 12 13 11 11 13 13 12 12 11 10
7 7 8 9 10 11 11 15 15 14 14 14 11 15 12 8 11 10 11 11 11 10
8 9 9 11 11 11 10 12 12 12 13 15 14 19 18 16 13 11 12 10 10 10
6 10 10 11 11 10 9 10 11 14 15 13 15 21 22 18 10 12 10 11 11 3
5 8 10 9 7 10 12 9 10 11 10 14 14 18 24 21 13 11 11 10 10 10
Wind_Direction
202 195 203 192 165 169 174 180 155 164 161 150 149 144 153 158 169 163 163 170 171 150
182 179 177 157 158 164 156 142 152 165 159 153 150 148 149 148 149 145 142 134 139 132
178 174 171 157 158 163 146 151 158 167 162 156 150 150 149 147 145 142 142 138 139 132
160 151 153 164 158 154 144 159 166 163 167 161 153 157 159 153 148 144 142 139 140 132
154 150 157 162 159 154 154 164 173 162 168 161 160 162 163 161 153 149 148 142 141 135
160 160 166 161 161 157 158 169 170 172 165 162 162 167 170 156 160 153 148 150 145 143
174 171 171 172 158 162 163 163 178 174 164 163 166 168 167 161 157 151 147 145 141 147
182 176 169 173 171 149 165 187 178 167 169 169 172 171 169 163 160 153 147 148 146 147
168 174 177 168 172 170 178 170 177 173 172 174 182 151 162 164 160 162 159 160 156 135
177 169 174 169 169 171 174 165 178 181 184 181 182 147 163 172 165 167 165 165 159 157
188 178 165 168 178 174 180 179 182 183 186 181 163 154 160 183 168 166 166 168 167 166
187 183 174 177 178 185 182 177 184 183 185 182 157 161 169 178 174 169 169 169 176 176
198 196 186 181 183 187 191 179 179 189 191 183 171 173 174 191 182 174 170 170 171 235
233 199 194 182 177 182 191 183 181 182 182 187 191 182 181 192 183 181 181 177 177 179